Tracking 30314 objects as of 20-Apr-2025
HD Live streaming from Space Station
objects crossing your sky now

SZ-19

Track SZ-19 now!
10-day predictions


NORAD ID: 61683
Int'l Code: 2024-195A
Perigee: 386.4 km
Apogee: 392.1 km
Inclination: 41.5 °
Period: 92.2 minutes
Semi major axis: 6760 km
RCS: Unknown
Launch date: October 23, 2024
Source: People's Republic of China (PRC)
Launch site: Jiuquan Satellite Launch Center, China (JSC)
Your satellite tracking list
Your tracking list is empty




NASA's NSSDC Master Catalog

Two Line Element Set (TLE):
1 61683U 24194A   25109.76547184  .00043195  00000-0  48324-3 0  9999
2 61683  41.4657  16.1025 0004163 204.0737 155.9908 15.61923548226602
Source of the keplerian elements: AFSPC